Hourly Data Report for October 24, 2017

All times are specified in Local Standard Time (LST). Add 1 hour to adjust for Daylight Saving Time where and when it is observed.

POWELL RIVER
BRITISH COLUMBIA

49°50'04.400" N
124°29'48.500" W
125.00 m
1046392
71720
VOP

Download Data

Hourly Data (October 2017)
Hourly Data Report for October 24, 2017
Temp Definition
°C
Dew Point Temp Definition
°C
Rel Hum Definition
%
Wind Dir Definition
10's deg

Wind Spd Definition
km/h
Visibility Definition
km
Stn Press Definition
kPa
Hmdx Definition


Wind Chill Definition


Weather Definition


TIME
00:00 10.2 8.4 88 LegendMM LegendMM   102.25     LegendNANA
01:00 10.5 9.0 90 LegendMM LegendMM   102.25     LegendNANA
02:00 9.8 8.3 90 LegendMM LegendMM   102.15     LegendNANA
03:00 8.4 7.4 94 LegendMM LegendMM   102.10     LegendNANA
04:00 8.6 8.0 96 LegendMM LegendMM   102.07     LegendNANA
05:00 8.4 7.9 96 LegendMM LegendMM   101.99     LegendNANA
06:00 9.0 8.5 97 LegendMM LegendMM   101.93     LegendNANA
07:00 8.8 8.2 96 LegendMM LegendMM   101.90     LegendNANA
08:00 9.2 8.7 97 LegendMM LegendMM   101.90     LegendNANA
09:00 12.1 9.9 86 LegendMM LegendMM   101.86     LegendNANA
10:00 11.6 9.6 88 LegendMM LegendMM   101.82     LegendNANA
11:00 11.8 9.2 84 LegendMM LegendMM   101.75     LegendNANA
12:00 12.8 9.4 80 LegendMM LegendMM   101.65     LegendNANA
13:00 12.4 9.1 80 LegendMM LegendMM   101.54     LegendNANA
14:00 13.0 9.4 79 LegendMM LegendMM   101.40     LegendNANA
15:00 13.3 9.1 75 LegendMM LegendMM   101.30     LegendNANA
16:00 12.4 8.7 78 LegendMM LegendMM   101.24     LegendNANA
17:00 11.1 8.9 87 LegendMM LegendMM   101.11     LegendNANA
18:00 9.1 7.9 92 LegendMM LegendMM   101.01     LegendNANA
19:00 8.2 7.4 95 LegendMM LegendMM   100.92     LegendNANA
20:00 7.9 7.4 96 LegendMM LegendMM   100.84     LegendNANA
21:00 8.3 7.9 97 LegendMM LegendMM   100.78     LegendNANA
22:00 7.6 7.1 97 LegendMM LegendMM   100.70     LegendNANA
23:00 9.9 9.6 98 LegendMM LegendMM   100.58     LegendNANA

Notes on Data Quality.

Legend

  • E = Estimated
  • M = Missing
  • NA = Not Available
  • ‡ = Partner data that is not subject to review by the National Climate Archives
Date modified: